Location: *
(48.4333°N, 5.0333°W)
Time: 02:07:29
(UTC+00:00)

SL-4 R/B - Pass Details

Date: 09 April 2020
Orbit: 428 x 666 km, 51.6° (Epoch: 29 May)

Event Time Altitude Azimuth Distance (km) Brightness Sun altitude
Rises 22:19:32 0° 287° (WNW) 2,400 6.0 -27.5°
Reaches altitude 10° 22:21:38 10° 292° (WNW) 1,542 5.0 -27.7°
Enters shadow 22:22:52 20° 298° (WNW) 1,067 4.1 -27.8°
